Flag for Austria Weather past 2 weeks in Gmünd, Lower Austria, Austria

Now
59 °F

Cool.


Feels Like: 59 °F
Forecast: 49 / 66 °F
Wind: 1 mph from Southwest

Location: Retz

Current Time: Aug 20, 2014 at 11:31:37 AM

Latest Report: Aug 20, 2014 at 10:00 AM


Visibility: N/A

Pressure: 30.01 "Hg

Humidity: 75%

Dew point: 51 °F

Location of GmündLocation

Historic Weather in Gmünd — Graph

°F

Gmünd temperature yesterday

Maximum temperature yesterday: 63 °F (at 7:00 PM)
Minimum temperature yesterday: 56 °F (at 8:00 AM)
Average temperature yesterday: 59 °F

Past Weeks' High & Low Weather Summary

 TemperatureHumidityPressure
High82 °F (Aug 8, 5:00 PM)98% (Aug 13, 12:00 AM)30.06 "Hg (Aug 13, 12:00 AM)
Low53 °F (Aug 17, 6:00 AM)38% (Aug 8, 4:00 PM)29.62 "Hg (Aug 13, 8:00 PM)
Average66 °F72%29.91 "Hg
* Reported Aug 5 10:00 AM — Aug 20 10:00 AM, Gmünd, Weather by CustomWeather, © 2014

Note: Actual official high and low records may vary slightly from our data, if they occured in-between our weather recording intervals... More about our weather records

Advertising

Gmünd weather history for previous 24 hours

 ConditionsComfort  
Time TempWeatherWind HumidityBarometerVisibility
10:00 AM
Aug 20
59 °FCool.1 mph75%30.01 "HgN/A
9:00 AM60 °FCool.1 mph75%30.00 "HgN/A
8:00 AM58 °FOvercast.1 mph77%29.99 "Hg12 mi
7:00 AM59 °FOvercast.7 mph75%29.96 "Hg9 mi
6:00 AM59 °FCool.8 mph77%29.95 "HgN/A
5:00 AM60 °FCool.8 mph79%29.94 "HgN/A
4:00 AM60 °FCool.7 mph77%29.93 "HgN/A
3:00 AM61 °FCool.2 mph75%29.93 "HgN/A
2:00 AM61 °FCool.5 mph80%29.92 "HgN/A
1:00 AM60 °FCool.3 mph87%29.93 "HgN/A
12:00 AM60 °FCool.5 mph89%29.92 "HgN/A
11:00 PM
Aug 19
60 °FCool.2 mph88%29.92 "HgN/A
10:00 PM61 °FCool.2 mph90%29.91 "HgN/A
9:00 PM61 °FCool.1 mph87%29.91 "HgN/A
8:00 PM62 °FPartly sunny.2 mph86%29.90 "Hg14 mi
7:00 PM63 °FMild.2 mph83%29.89 "HgN/A
6:00 PM62 °FMild.1 mph83%29.90 "HgN/A
5:00 PM62 °FCool.1 mph87%29.91 "HgN/A
4:00 PM61 °FCool.1 mph86%29.91 "HgN/A
3:00 PM61 °FCool.1 mph86%29.91 "HgN/A
2:00 PM60 °FOvercast.1 mph90%29.91 "Hg16 mi
1:00 PM57 °FCool.2 mph94%29.91 "HgN/A
12:00 PM56 °FSprinkles. Cloudy.2 mph94%29.96 "HgN/A
11:00 AM56 °FCool.2 mph93%29.96 "HgN/A
Weather by CustomWeather, © 2014

See weather overviewHow to use our weather pages